Flag for USA

Past Weather in San Luis Obispo, California, USA — Yesterday and Last 2 Weeks

Now
68 °F

Clear.


Feels Like: 68 °F
Forecast: 95 / 59 °F
Wind: No wind

Location: Paso Robles Municipal Airport
Current Time: Sep 30, 2020 at 12:21:45 am
Latest Report: Sep 29, 2020 at 10:53 pm
Visibility: 10 mi
Pressure30.02 "Hg
Humidity: 59%
Dew Point: 53 °F
Location of San Luis ObispoLocation

Past Weather in San Luis Obispo — Graph

°F

San Luis Obispo Temperature Yesterday

Maximum temperature yesterday: 102 °F (at 2:53 pm)
Minimum temperature yesterday: 56 °F (at 6:53 am)
Average temperature yesterday: 77 °F

High & Low Weather Summary for the Past Weeks

 TemperatureHumidityPressure
High104 °F (Sep 28, 2:53 pm)89% (Sep 20, 5:53 am)30.08 "Hg (Sep 20, 5:53 am)
Low46 °F (Sep 16, 6:53 am)9% (Sep 16, 4:53 pm)29.79 "Hg (Sep 27, 5:53 pm)
Average72 °F49%29.95 "Hg
* Reported Sep 14 10:53 pm — Sep 29 10:53 pm, San Luis Obispo. Weather by CustomWeather, © 2020

Note: Actual official high and low records may vary slightly from our data, if they occured in-between our weather recording intervals... More about our weather records

San Luis Obispo Weather History for the Previous 24 Hours

Scroll right to see more
 ConditionsComfort  
Time TempWeatherWind HumidityBarometerVisibility
10:53 pm
Tue, Sep 29
68 °FClear.No wind59%30.02 "Hg10 mi
9:53 pm70 °FClear.6 mph55%30.01 "Hg10 mi
8:53 pm74 °FClear.8 mph50%29.99 "Hg10 mi
7:53 pm80 °FClear.12 mph38%29.96 "Hg10 mi
6:53 pm90 °FClear.6 mph12%29.93 "Hg10 mi
5:53 pm98 °FSunny.10 mph9%29.92 "Hg10 mi
4:53 pm100 °FSunny.12 mph9%29.91 "Hg10 mi
3:53 pm102 °FSunny.13 mph9%29.92 "Hg10 mi
2:53 pm102 °FSunny.6 mph12%29.92 "Hg10 mi
1:53 pm100 °FSunny.5 mph14%29.95 "Hg10 mi
12:53 pm96 °FSunny.5 mph20%29.97 "Hg10 mi
11:53 am88 °FSunny.No wind29%30.00 "Hg10 mi
10:53 am81 °FSunny.3 mph38%30.02 "Hg10 mi
9:53 am74 °FSunny.No wind48%30.03 "Hg10 mi
8:53 am67 °FSunny.No wind61%30.02 "Hg10 mi
7:53 am59 °FSunny.No wind69%30.01 "Hg10 mi
6:53 am56 °FClear.No wind75%30.00 "Hg10 mi
5:53 am57 °FClear.No wind72%29.98 "Hg10 mi
4:53 am57 °FClear.No wind69%29.97 "Hg10 mi
3:53 am58 °FClear.No wind70%29.96 "Hg10 mi
2:53 am60 °FClear.No wind67%29.96 "Hg10 mi
1:53 am62 °FClear.No wind67%29.96 "Hg10 mi
12:53 am64 °FClear.No wind65%29.95 "Hg10 mi
Weather by CustomWeather, © 2020

See weather overview